Retour au catalogue

ERS 9

LostSciencePO
NORAD 635·PAYLOAD·🇺🇸 United States

Lancé Jul 19, 1963 depuis Vandenberg Space Force Base

Loading…

Prochains Passages (prochaines 24 heures)

TLE

PériméSource: Space-Track

Époque: Oct 8, 2025, 10:11 UTC

1 00635U 63030B   25281.42451812 -.00000018  00000-0 -10374-1 0  9998
2 00635  88.4228 228.9160 0044348 284.1662  75.4263  8.57948362948851

Suivez ERS 9 en temps réel avec AllMySat

Download on the App Store